Fairbanks, AK

12:36 AM AKST on December 18, 2017 (GMT -0900)
Fairbanks International

Weather History for PAFA - May, 2015

Change the Weather History Date:

Monday, May 4, 2015

  Actual Average Record
Temperature  
Mean Temperature 49 °F 44 °F  
Max Temperature 61 °F 56 °F 69 °F (1907)
Min Temperature 37 °F 33 °F 9 °F (1945)
Degree Days  
Heating Degree Days 16 21  
Month to date heating degree days 79 86  
Since 1 July heating degree days 11914 13110  
Cooling Degree Days 0 0  
Month to date cooling degree days 0 0  
Year to date cooling degree days 0 0  
Moisture  
Dew Point 19 °F    
Average Humidity 29    
Maximum Humidity 50    
Minimum Humidity 8    
Precipitation  
Precipitation 0.00 in 0.01 in 0.37 in (1984)
Month to date precipitation 0.00 0.06  
Year to date precipitation 1.28 1.62  
Snow  
Snow 0.00 in 0.00 in 3.20 in (2001)
Month to date snowfall 0.0 0.2  
Since 1 July snowfall 43.8 64.3  
Snow Depth 0.00 in    
Sea Level Pressure  
Sea Level Pressure 30.05 in    
Wind  
Wind Speed 7 mph (NE)    
Max Wind Speed 13 mph    
Max Gust Speed -    
Visibility 10 miles    
Events      
T = Trace of Precipitation, MM = Missing Value Source: NWS Daily Summary

Daily Weather History Graph

Daily Weather History Graph

Search for Another Location

Airport or City:

Trip Planner

Search our weather history database for the weather conditions in past years. The results will help you decide how hot, cold, wet, or windy it might be!

Date:

Astronomy

May. 04, 2015 Rise Set
Actual Time 5:07 AM AKDT 10:31 PM AKDT
Civil Twilight 3:49 AM AKDT 11:51 PM AKDT
Nautical Twilight Sun does not rise Sun does not rise
Astronomical Twilight Sun does not rise Sun does not rise
Moon 11:17 PM AKDT (5/4) 5:59 AM AKDT (5/4)
Length of Visible Light 20h 01m
Length of Day
17h 23m
Full, 100% of the Moon is Illuminated
May 4
Full
May 11
Last Quarter
May 17
New
May 25
First Quarter
Jun 2
Full

Hourly Weather History & Observations

Time (AKDT) Temp. Windchill Dew Point Humidity Pressure Visibility Wind Dir Wind Speed Gust Speed Precip Events Conditions
12:53 AM 44.1 °F 39.0 °F 18.0 °F 35% 30.10 in 10.0 mi North 9.2 mph - N/A   Mostly Cloudy
1:53 AM 43.0 °F 38.2 °F 17.1 °F 35% 30.11 in 10.0 mi North 8.1 mph - N/A   Mostly Cloudy
2:53 AM 42.1 °F 36.6 °F 18.0 °F 38% 30.11 in 10.0 mi North 9.2 mph - N/A   Mostly Cloudy
3:53 AM 42.1 °F 36.6 °F 17.1 °F 37% 30.11 in 10.0 mi North 9.2 mph - N/A   Mostly Cloudy
4:53 AM 39.9 °F 35.1 °F 18.0 °F 41% 30.11 in 10.0 mi North 6.9 mph - N/A   Mostly Cloudy
5:53 AM 37.0 °F 31.6 °F 19.9 °F 50% 30.11 in 10.0 mi NE 6.9 mph - N/A   Mostly Cloudy
6:53 AM 37.9 °F 32.1 °F 19.9 °F 48% 30.11 in 10.0 mi NE 8.1 mph - N/A   Mostly Cloudy
7:53 AM 44.1 °F 39.5 °F 19.0 °F 37% 30.11 in 10.0 mi NNE 8.1 mph - N/A   Mostly Cloudy
8:53 AM 46.0 °F 43.9 °F 19.0 °F 34% 30.11 in 10.0 mi ENE 4.6 mph - N/A   Mostly Cloudy
9:53 AM 50.0 °F - 19.0 °F 29% 30.10 in 10.0 mi Calm Calm - N/A   Mostly Cloudy
10:53 AM 52.0 °F - 18.0 °F 26% 30.09 in 10.0 mi East 6.9 mph - N/A   Scattered Clouds
11:53 AM 55.4 °F - 19.4 °F 25% 30.07 in 10.0 mi East 4.6 mph - N/A   Scattered Clouds
12:53 PM 57.0 °F - 19.0 °F 23% 30.07 in 10.0 mi North 3.5 mph - N/A   Scattered Clouds
1:53 PM 57.0 °F - 18.0 °F 22% 30.05 in 10.0 mi Variable 3.5 mph - N/A   Scattered Clouds
2:53 PM 59.0 °F - 16.0 °F 19% 30.03 in 10.0 mi Calm Calm - N/A   Partly Cloudy
3:53 PM 60.1 °F - 15.1 °F 17% 30.02 in 10.0 mi Variable 3.5 mph - N/A   Partly Cloudy
4:53 PM 60.1 °F - 16.0 °F 18% 30.00 in 10.0 mi ESE 6.9 mph - N/A   Scattered Clouds
5:53 PM 60.1 °F - 18.0 °F 20% 29.99 in 10.0 mi ENE 10.4 mph - N/A   Scattered Clouds
6:53 PM 59.0 °F - 18.0 °F 20% 29.98 in 10.0 mi ENE 10.4 mph - N/A   Mostly Cloudy
7:53 PM 57.0 °F - 19.0 °F 23% 29.97 in 10.0 mi NE 12.7 mph - N/A   Mostly Cloudy
8:53 PM 53.1 °F - 21.9 °F 30% 29.97 in 10.0 mi NE 12.7 mph - N/A   Mostly Cloudy
9:53 PM 46.0 °F 41.9 °F 23.0 °F 40% 29.97 in 10.0 mi NNE 8.1 mph - N/A   Mostly Cloudy
10:53 PM 46.9 °F - 21.0 °F 36% 29.97 in 10.0 mi North 9.2 mph - N/A   Mostly Cloudy
11:53 PM 46.0 °F 41.0 °F 19.9 °F 35% 29.96 in 10.0 mi North 10.4 mph - N/A   Mostly Cloudy